Weather past 2 weeks in Willemstad, Curaçao

Now
84 °F

Scattered clouds.


Feels Like: 92 °F
Forecast: 78 / 83 °F
Wind: 10 mph from East

Location: Hato Airport - Curacao

Current Time: Jan 31, 2015 at 12:30:17 PM

Latest Report: Jan 31, 2015 at 11:00 AM


Visibility: N/A

Pressure: 29.98 "Hg

Humidity: 74%

Dew point: 75 °F

Location of WillemstadLocation

Historic Weather in Willemstad — Graph

°F

Willemstad temperature yesterday

Maximum temperature yesterday: 88 °F (at 1:00 PM)
Minimum temperature yesterday: 77 °F (at 7:00 AM)
Average temperature yesterday: 82 °F

Past Weeks' High & Low Weather Summary

 TemperatureHumidityPressure
High88 °F (Jan 16, 2:00 PM)94% (Jan 17, 5:00 AM)30.01 "Hg (Jan 17, 5:00 AM)
Low75 °F (Jan 19, 6:00 AM)51% (Jan 28, 5:00 PM)29.86 "Hg (Jan 16, 4:00 PM)
Average81 °F77%29.93 "Hg
* Reported Jan 16 11:00 AM — Jan 31 11:00 AM, Willemstad, Weather by CustomWeather, © 2014

Note: Actual official high and low records may vary slightly from our data, if they occured in-between our weather recording intervals... More about our weather records

Advertising

Willemstad weather history for previous 24 hours

 ConditionsComfort  
Time TempWeatherWind HumidityBarometerVisibility
11:00 AM
Jan 31
84 °FScattered clouds.10 mph74%29.98 "HgN/A
10:00 AM84 °FScattered clouds.10 mph74%29.98 "HgN/A
9:00 AM81 °FScattered clouds.10 mph84%29.95 "HgN/A
8:00 AM77 °FScattered clouds.12 mph89%29.95 "HgN/A
7:00 AM79 °FPassing clouds.12 mph84%29.92 "HgN/A
6:00 AM79 °FPassing clouds.10 mph84%29.92 "HgN/A
5:00 AM79 °FPassing clouds.8 mph84%29.89 "HgN/A
12:00 AM79 °FPassing clouds.12 mph79%29.95 "HgN/A
11:00 PM
Jan 30
79 °FPassing clouds.12 mph79%29.95 "HgN/A
10:00 PM79 °FPassing clouds.12 mph79%29.92 "HgN/A
9:00 PM79 °FPassing clouds.10 mph79%29.92 "HgN/A
8:00 PM79 °FPassing clouds.8 mph74%29.89 "HgN/A
7:00 PM81 °FPassing clouds.9 mph70%29.89 "HgN/A
6:00 PM82 °FPassing clouds.13 mph62%29.89 "HgN/A
5:00 PM84 °FPassing clouds.16 mph55%29.89 "HgN/A
4:00 PM86 °FScattered clouds.14 mph62%29.89 "HgN/A
3:00 PM84 °FScattered clouds.14 mph66%29.89 "HgN/A
2:00 PM86 °FScattered clouds.14 mph62%29.92 "HgN/A
1:00 PM88 °FScattered clouds.14 mph59%29.92 "HgN/A
12:00 PM86 °FPassing clouds.14 mph62%29.95 "HgN/A
Weather by CustomWeather, © 2014

See weather overviewHow to use our weather pages